TITAN 3C TRANSTAGE DEB, 1959

Orbit data source: Space-Track

TITAN 3C TRANSTAGE DEB, 1959 is space debris in LEO originally from a launch on Fri, 15 Oct 1965 UTC launched from the Air Force Eastern Test Range (AFETR). Debris objects in space refer to the collection of defunct objects orbiting the Earth. Examples of debris include non-operational satellites, rocket bodies, and fragments generated from explosions, collisions, or faulty payload assembly.

Loading next visibility...
TITAN 3C TRANSTAGE DEB details
Identifier
1959, 1965-082GU
Orbit
LEO
Last TLE update1 day ago
Origin
Flag of USUSAF SSD (US)
ManufacturerUnknown
MissionSpacecraft
Bus & MotorUnknown
MassUnknown
Launch date (UTC)
1965-10-15 (59 years ago)
Launch vehicleUnknown
Launch site
Air Force Eastern Test Range (AFETR)
Object type
Payload
Rocket body
Debris
Shape & HBRUnknown
Radar Cross SectionSmall (<0.1 m²)

Expand to show TLE details & history

TLE from 1 day ago
0 TITAN 3C TRANSTAGE DEB
1 01959U 65082GU  24356.21935980  .00001588  00000-0  32098-3 0  9999
2 01959  31.7914 335.5978 0063010 356.5666   3.4534 14.58087458134421
Epoch: 2024-12-21T05:15Z
Definitive object data (Epoch: 2024-12-21T05:15:52.686Z)
Latitude-0.00004°
Longitude166.35455°
Altitude653.474 km
Speed7.557 km/s
True Right ascension22h 22m 23s
True Declination0° 00' 00"
Sunlit
Object was in daylight at TLE epoch
Visualization TLE readout
Latitude29.16825°
Longitude-83.42183°
Altitude711.284 km
Speed7.498 km/s
Apparent Right ascension06h 31m 43s
Apparent Declination-25° 25' 18"
Sunlit
Object is in full shadow
Visualization observer readout
Local Sidereal Time05:30:11
Azimuth164.898° S
Elevation23.106°
Doppler factor1
Orbital elements
Apogee altitude747.612 km
Perigee altitude658.376 km
Semi-major axis7,081.131 km
Eccentricity0.006301
Inclination31.7914°
RAAN335.5978°
Arg. of periapsis356.5666°
True anomaly3.49724°
Mean anomaly3.4534°
Eccentric anomaly3.47528°
Mean motion3.64241 °/min
BSTAR0.00032098
Orbital period98.84 mins
Loading maneuver chart data...

TITAN 3C TRANSTAGE DEB Visibility forecast

Observer location: undefined°, undefined

Span
Click to sort rows by Start time (UTC) header in descending order
Start Az.
Max El. time (UTC)
Max El. Az.
Max El.
End time (UTC)
End Az.
4 mins2024-12-23 01:52:25.810Z183.769° SSW2024-12-23 01:54:25.810Z155.297° SSE15.658°2024-12-23 01:56:25.810Z128.376° SE
7 mins2024-12-23 03:35:25.810Z220.993° SW2024-12-23 03:38:25.810Z167.276° S26.132°2024-12-23 03:42:25.810Z113.189° SE
7 mins2024-12-23 05:19:25.810Z236.907° WSW2024-12-23 05:22:25.810Z185.807° SSW26.281°2024-12-23 05:26:25.810Z129.467° SE
|